User: anonymous   Login
Location: Unspecified
(0.0000°N, 0.0000°E)
Time: 03:34:58
(UTC+00:00)
Language:

LQSAT - Orbit

View from above orbital plane
View from above orbital plane
View from above satellite
View from above satellite

Ground track
Ground track

The orbit data is extracted from the following two-line orbital elements,

1 40958U 15057A   24110.84937387  .00002679  00000-0  40829-3 0  9991
2 40958  97.6722 134.0775 0016393 312.9148  47.0685 14.74591854459015
Epoch (UTC): 19 April 2024 20:23:05
Eccentricity: 0.0016393
inclination: 97.6722°
perigee height: 635 km
apogee height: 658 km
right ascension of ascending node: 134.0775°
argument of perigee: 312.9148°
revolutions per day: 14.74591854
mean anomaly at epoch: 47.0685°
orbit number at epoch: 45901

The dashed part of the orbit path shows where the satellite is in the earth's shadow,  

DLR